Weather History for Paynesville, MN

Change the Weather History Date:

Monday, February 17, 2014

  Actual Average (KLJF) Record (KLJF)
Temperature  
Mean Temperature 23 °F -  
Max Temperature 31 °F 27 °F 55 °F (1981)
Min Temperature 15 °F 8 °F -31 °F (1993)
Degree Days  
Heating Degree Days 42    
Moisture  
Dew Point 19 °F    
Average Humidity 86    
Maximum Humidity 96    
Minimum Humidity 74    
Precipitation  
Precipitation 0.03 in - - ()
Sea Level Pressure  
Sea Level Pressure 29.70 in    
Wind  
Wind Speed 13 mph (South)    
Max Wind Speed 24 mph    
Max Gust Speed 34 mph    
Visibility 6 miles    
Events Snow    
Averages and records for this station are not official NWS values.
T = Trace of Precipitation, MM = Missing Value Source: NWS Daily Summary

Daily Weather History Graph

Daily Weather History Graph

Search for Another Location

Airport:

Trip Planner

Search our weather history database for the weather conditions in past years. The results will help you decide how hot, cold, wet, or windy it might be!

Date:

Astronomy

Feb. 17, 2014 Rise Set
Actual Time 7:17 AM CST 5:49 PM CST
Civil Twilight 6:47 AM CST 6:19 PM CST
Nautical Twilight 6:12 AM CST 6:54 PM CST
Astronomical Twilight 5:38 AM CST 7:28 PM CST
Moon 8:55 PM CST (2/17) 8:08 AM CST (2/17)
Length of Visible Light 11h 32m
Length of Day
10h 32m
Waning Gibbous, 93% of the Moon is Illuminated
Feb 17
Waning Gibbous
Feb 22
Last Quarter
Mar 1
New
Mar 8
First Quarter
Mar 16
Full

Hourly Weather History & Observations

Time (CST) Temp. Windchill Dew Point Humidity Pressure Visibility Wind Dir Wind Speed Gust Speed Precip Events Conditions
12:12 AM 20.1 °F 3.4 °F 14.7 °F 80% 29.83 in 4.0 mi SE 23.0 mph 33.4 mph N/A   Haze
12:32 AM 20.3 °F 4.4 °F 14.9 °F 80% 29.82 in 5.0 mi SE 20.7 mph 29.9 mph N/A Snow Light Snow
12:52 AM 20.3 °F 3.3 °F 15.6 °F 82% 29.78 in 1.5 mi SE 24.2 mph 34.5 mph N/A Snow Light Snow
1:11 AM 20.7 °F 4.5 °F 15.4 °F 80% 29.79 in 3.0 mi SE 21.9 mph 29.9 mph N/A Snow Light Snow
1:32 AM 21.0 °F 6.2 °F 15.4 °F 79% 29.79 in 5.0 mi SE 18.4 mph 25.3 mph N/A   Haze
1:53 AM 21.2 °F 9.5 °F 15.4 °F 78% 29.80 in 7.0 mi SE 11.5 mph 23.0 mph N/A   Overcast
2:13 AM 21.2 °F 7.8 °F 15.8 °F 80% 29.79 in 7.0 mi SE 15.0 mph 18.4 mph N/A   Overcast
2:32 AM 21.2 °F 8.3 °F 16.3 °F 82% 29.78 in 4.0 mi SE 13.8 mph - N/A Snow Light Snow
2:52 AM 21.2 °F 7.3 °F 16.5 °F 82% 29.77 in 4.0 mi SE 16.1 mph 23.0 mph N/A Snow Light Snow
3:12 AM 21.0 °F 8.1 °F 17.1 °F 85% 29.76 in 2.5 mi SE 13.8 mph 19.6 mph N/A Snow Light Snow
3:32 AM 20.7 °F 6.6 °F 17.4 °F 87% 29.75 in 2.5 mi SE 16.1 mph 21.9 mph N/A Snow Light Snow
3:52 AM 20.3 °F 6.6 °F 17.6 °F 89% 29.74 in 1.0 mi SE 15.0 mph 23.0 mph N/A Snow Light Snow
4:12 AM 20.1 °F 6.4 °F 17.6 °F 90% 29.73 in 1.2 mi SE 15.0 mph 23.0 mph N/A Snow Light Snow
4:32 AM 20.1 °F 5.9 °F 17.6 °F 90% 29.72 in 1.5 mi SE 16.1 mph 24.2 mph N/A Snow Light Snow
4:52 AM 19.9 °F 5.7 °F 17.6 °F 91% 29.70 in 0.8 mi SE 16.1 mph 23.0 mph N/A Snow Snow
5:12 AM 19.9 °F 5.2 °F 17.6 °F 91% 29.70 in 0.5 mi SE 17.3 mph 23.0 mph N/A Snow Snow
5:32 AM 19.9 °F 6.2 °F 18.0 °F 92% 29.69 in 0.5 mi SE 15.0 mph 23.0 mph N/A Snow Heavy Snow
5:52 AM 19.8 °F 5.0 °F 18.0 °F 93% 29.68 in 0.5 mi SE 17.3 mph 24.2 mph 0.01 in Snow Heavy Snow
6:12 AM 19.8 °F 5.9 °F 17.6 °F 91% 29.67 in 0.5 mi SE 15.0 mph 20.7 mph N/A Snow Heavy Snow
6:32 AM 19.6 °F 5.7 °F 17.6 °F 92% 29.67 in 0.5 mi SE 15.0 mph 19.6 mph N/A Snow Snow
6:52 AM 19.4 °F 7.9 °F 17.6 °F 93% 29.67 in 0.8 mi SSE 10.4 mph - 0.02 in Snow Snow
7:12 AM 19.8 °F 10.8 °F 17.6 °F 91% 29.67 in 1.2 mi SE 6.9 mph - N/A Snow Light Snow
7:32 AM 19.9 °F 12.1 °F 17.6 °F 91% 29.67 in 1.0 mi SE 5.8 mph - N/A Snow Light Snow
7:52 AM 19.9 °F 12.1 °F 17.6 °F 91% 29.66 in 1.0 mi SE 5.8 mph - N/A Snow Light Snow
8:12 AM 19.9 °F 13.4 °F 17.8 °F 91% 29.67 in 1.2 mi SE 4.6 mph - N/A Snow Light Snow
8:32 AM 20.1 °F - 18.0 °F 91% 29.67 in 1.0 mi Calm Calm - N/A Snow Light Snow
8:52 AM 20.3 °F 11.5 °F 18.1 °F 91% 29.65 in 1.0 mi SE 6.9 mph - N/A Snow Light Snow
9:12 AM 20.7 °F 9.5 °F 18.3 °F 91% 29.64 in 1.8 mi SE 10.4 mph - N/A Snow Light Snow
9:32 AM 21.0 °F 12.4 °F 18.3 °F 89% 29.64 in 4.0 mi SE 6.9 mph - N/A   Scattered Clouds
9:52 AM 21.4 °F 13.8 °F 18.5 °F 89% 29.67 in 5.0 mi SSW 5.8 mph - N/A   Mostly Cloudy
10:12 AM 21.9 °F - 18.7 °F 87% 29.67 in 5.0 mi Calm Calm - N/A   Overcast
10:32 AM 22.3 °F - 19.0 °F 87% 29.67 in 5.0 mi Calm Calm - N/A   Overcast
10:52 AM 22.8 °F 16.7 °F 19.2 °F 86% 29.68 in 5.0 mi SW 4.6 mph - N/A   Overcast
11:12 AM 23.7 °F - 20.1 °F 86% 29.67 in 5.0 mi Calm Calm - N/A   Overcast
11:32 AM 24.3 °F - 20.3 °F 85% 29.67 in 5.0 mi Calm Calm - N/A   Overcast
11:52 AM 25.3 °F 19.7 °F 21.0 °F 84% 29.67 in 5.0 mi West 4.6 mph - N/A   Overcast
12:12 PM 26.6 °F 20.0 °F 21.2 °F 80% 29.67 in 5.0 mi WNW 5.8 mph - N/A   Haze
12:32 PM 27.5 °F 20.2 °F 21.9 °F 80% 29.67 in 7.0 mi WNW 6.9 mph - N/A   Mostly Cloudy
12:52 PM 28.8 °F 19.5 °F 22.5 °F 77% 29.66 in 7.0 mi WNW 10.4 mph - N/A   Mostly Cloudy
1:12 PM 28.9 °F 18.2 °F 22.1 °F 76% 29.66 in 7.0 mi WNW 13.8 mph - N/A   Mostly Cloudy
1:32 PM 28.8 °F 17.5 °F 22.3 °F 77% 29.67 in 10.0 mi WNW 15.0 mph 20.7 mph N/A   Overcast
1:53 PM 28.9 °F 17.7 °F 22.3 °F 76% 29.67 in 10.0 mi West 15.0 mph 18.4 mph N/A   Overcast
2:12 PM 29.3 °F 18.2 °F 22.6 °F 76% 29.67 in 10.0 mi WNW 15.0 mph 18.4 mph N/A   Overcast
2:32 PM 30.2 °F 20.8 °F 23.0 °F 75% 29.67 in 10.0 mi WNW 11.5 mph - N/A   Mostly Cloudy
2:52 PM 30.2 °F 20.2 °F 23.0 °F 75% 29.68 in 10.0 mi WNW 12.7 mph - N/A   Clear
3:12 PM 30.4 °F 21.5 °F 23.4 °F 75% 29.67 in 10.0 mi WNW 10.4 mph - N/A   Clear
3:33 PM 30.9 °F 22.8 °F 23.4 °F 74% 29.69 in 10.0 mi WNW 9.2 mph - N/A   Clear
3:52 PM 30.9 °F 22.2 °F 23.7 °F 75% 29.69 in 10.0 mi WNW 10.4 mph - N/A   Clear
4:12 PM 31.3 °F 24.7 °F 24.1 °F 75% 29.70 in 10.0 mi West 6.9 mph - N/A   Clear
4:32 PM 30.9 °F 21.7 °F 23.9 °F 75% 29.70 in 10.0 mi West 11.5 mph - N/A   Clear
4:52 PM 30.2 °F 20.2 °F 23.7 °F 77% 29.71 in 10.0 mi West 12.7 mph 16.1 mph N/A   Clear
5:12 PM 29.8 °F 19.3 °F 23.5 °F 77% 29.72 in 10.0 mi West 13.8 mph - N/A   Clear
5:32 PM 29.3 °F 20.8 °F 23.5 °F 79% 29.72 in 10.0 mi West 9.2 mph - N/A   Clear
5:52 PM 27.5 °F 20.2 °F 22.5 °F 81% 29.72 in 10.0 mi West 6.9 mph - N/A   Clear
6:11 PM 25.9 °F - 21.2 °F 82% 29.72 in 10.0 mi Calm Calm - N/A   Clear
6:32 PM 23.0 °F - 19.4 °F 86% 29.72 in 10.0 mi Calm Calm - N/A   Clear
6:52 PM 22.3 °F - 19.6 °F 89% 29.72 in 10.0 mi Calm Calm - N/A   Clear
7:12 PM 20.1 °F - 17.1 °F 88% 29.72 in 10.0 mi Calm Calm - N/A   Clear
7:33 PM 17.6 °F - 15.6 °F 92% 29.72 in 10.0 mi Calm Calm - N/A   Clear
7:52 PM 17.6 °F - 16.0 °F 93% 29.73 in 10.0 mi Calm Calm - N/A   Clear
8:12 PM 16.2 °F - 14.7 °F 94% 29.72 in 10.0 mi Calm Calm - N/A   Clear
8:32 PM 17.1 °F - 15.8 °F 95% 29.71 in 10.0 mi Calm Calm - N/A   Clear
8:52 PM 15.8 °F - 14.0 °F 93% 29.71 in 10.0 mi Calm Calm - N/A   Clear
9:12 PM 16.9 °F 9.8 °F 15.6 °F 95% 29.71 in 7.0 mi SSW 4.6 mph - N/A   Clear
9:32 PM 19.6 °F - 18.5 °F 96% 29.71 in 5.0 mi Calm Calm - N/A   Clear
9:40 PM 21.6 °F - 20.7 °F 96% 29.71 in 10.0 mi Calm Calm - N/A   Clear
10:13 PM 25.5 °F 17.8 °F 24.4 °F 96% 29.70 in 10.0 mi South 6.9 mph - N/A   Clear
10:32 PM 25.9 °F 20.3 °F 23.9 °F 92% 29.70 in 10.0 mi SSW 4.6 mph - N/A   Clear
10:52 PM 26.4 °F 18.0 °F 23.7 °F 90% 29.69 in 10.0 mi South 8.1 mph - N/A   Scattered Clouds
11:12 PM 26.6 °F 17.5 °F 23.4 °F 88% 29.69 in 10.0 mi South 9.2 mph - N/A   Scattered Clouds
11:32 PM 25.5 °F 17.8 °F 22.3 °F 88% 29.69 in 10.0 mi South 6.9 mph - N/A   Clear
11:52 PM 24.8 °F 15.3 °F 21.7 °F 88% 29.68 in 10.0 mi South 9.2 mph - N/A   Clear